TimeHST,TemperatureF,Dew PointF,Humidity,Sea Level PressureIn,VisibilityMPH,Wind Direction,Wind SpeedMPH,Gust SpeedMPH,PrecipitationIn,Events,Conditions,WindDirDegrees,DateUTC
12:53 AM,70.0,62.1,76,30.13,10.0,Variable,3.5,-,N/A,,Mostly Cloudy,0,2012-11-16 10:53:00
1:53 AM,70.0,62.1,76,30.12,10.0,Calm,Calm,-,N/A,,Scattered Clouds,0,2012-11-16 11:53:00
2:53 AM,71.1,64.0,78,30.11,10.0,Calm,Calm,-,N/A,,Overcast,0,2012-11-16 12:53:00
3:53 AM,68.0,64.9,90,30.11,10.0,Calm,Calm,-,0.00,,Overcast,0,2012-11-16 13:53:00
4:53 AM,69.1,64.0,84,30.09,10.0,Calm,Calm,-,N/A,,Overcast,0,2012-11-16 14:53:00
5:53 AM,68.0,63.0,84,30.11,10.0,Calm,Calm,-,0.00,,Mostly Cloudy,0,2012-11-16 15:53:00
6:53 AM,66.9,62.1,84,30.11,10.0,Calm,Calm,-,N/A,,Partly Cloudy,0,2012-11-16 16:53:00
7:53 AM,72.0,64.0,76,30.13,10.0,Variable,4.6,-,0.00,,Clear,0,2012-11-16 17:53:00
8:53 AM,75.0,62.1,64,30.15,10.0,ENE,8.1,17.3,N/A,,Scattered Clouds,70,2012-11-16 18:53:00
9:53 AM,75.0,63.0,66,30.16,10.0,Variable,6.9,21.9,0.01,,Scattered Clouds,0,2012-11-16 19:53:00
10:53 AM,77.0,62.1,60,30.15,10.0,ENE,12.7,20.7,N/A,,Mostly Cloudy,70,2012-11-16 20:53:00
11:53 AM,81.0,60.1,49,30.12,10.0,ENE,10.4,25.3,N/A,,Scattered Clouds,70,2012-11-16 21:53:00
12:53 PM,82.0,60.1,47,30.09,10.0,ENE,10.4,19.6,N/A,,Mostly Cloudy,70,2012-11-16 22:53:00
1:53 PM,80.1,57.9,47,30.07,10.0,NE,9.2,20.7,N/A,,Clear,50,2012-11-16 23:53:00
2:53 PM,81.0,55.9,42,30.06,10.0,ENE,11.5,17.3,N/A,,Clear,60,2012-11-17 00:53:00
3:53 PM,79.0,57.9,48,30.06,10.0,ENE,10.4,24.2,N/A,,Clear,70,2012-11-17 01:53:00
4:53 PM,77.0,60.1,56,30.07,10.0,Variable,6.9,17.3,N/A,,Clear,0,2012-11-17 02:53:00
5:53 PM,75.0,60.1,60,30.09,10.0,ENE,8.1,17.3,N/A,,Clear,70,2012-11-17 03:53:00
6:53 PM,73.9,60.1,62,30.10,10.0,ENE,5.8,-,N/A,,Clear,70,2012-11-17 04:53:00
7:53 PM,73.9,60.1,62,30.12,10.0,Variable,5.8,-,N/A,,Clear,0,2012-11-17 05:53:00
8:51 PM,73.4,60.8,65,30.10,10.0,Variable,5.8,-,N/A,,Partly Cloudy,0,2012-11-17 06:51:00
8:53 PM,73.0,61.0,66,30.13,10.0,Variable,4.6,-,N/A,,Partly Cloudy,0,2012-11-17 06:53:00
9:53 PM,73.0,61.0,66,30.13,10.0,Variable,3.5,-,N/A,,Clear,0,2012-11-17 07:53:00
10:53 PM,73.0,61.0,66,30.13,10.0,ENE,3.5,-,N/A,,Clear,70,2012-11-17 08:53:00
11:53 PM,72.0,61.0,68,30.11,10.0,Calm,Calm,-,N/A,,Clear,0,2012-11-17 09:53:00